| time (UTC) | temp C | wind direction | speed KPH | gust KPH | rain 1hr cm | rain 24hr cm | rain mn cm | humidity % | barometer mb |
| 20260906075736 | 18 | 88 | 4.8 | 4.8 | 0.00 | 0.53 | 0.00 | 89 | 1018.6 |
| 20260906075236 | 19 | 87 | 1.6 | 4.8 | 0.00 | 0.53 | 0.00 | 89 | 1018.7 |
| 20260906074736 | 19 | 92 | 4.8 | 4.8 | 0.00 | 0.53 | 0.00 | 89 | 1018.6 |
| 20260906074236 | 19 | 85 | 4.8 | 4.8 | 0.00 | 0.53 | 0.00 | 88 | 1018.5 |
| 20260906073736 | 19 | 78 | 1.6 | 4.8 | 0.00 | 0.53 | 0.00 | 88 | 1018.5 |
| 20260906073236 | 19 | 91 | 3.2 | 4.8 | 0.00 | 0.53 | 0.00 | 88 | 1018.5 |
| 20260906072736 | 19 | 95 | 3.2 | 3.2 | 0.00 | 0.53 | 0.00 | 88 | 1018.4 |
| 20260906072236 | 19 | 135 | 0.0 | 4.8 | 0.00 | 0.53 | 0.00 | 88 | 1018.5 |
| 20260906071737 | 19 | 61 | 1.6 | 4.8 | 0.00 | 0.53 | 0.00 | 87 | 1018.4 |
| 20260906071237 | 19 | 102 | 3.2 | 4.8 | 0.00 | 0.53 | 0.00 | 87 | 1018.4 |
| 20260906070737 | 20 | 60 | 1.6 | 6.4 | 0.00 | 0.53 | 0.00 | 87 | 1018.4 |
| 20260906070237 | 20 | 111 | 0.0 | 4.8 | 0.00 | 0.53 | 0.00 | 87 | 1018.5 |
| 20260906065737 | 20 | 108 | 1.6 | 4.8 | 0.00 | 0.53 | 0.00 | 87 | 1018.3 |
| 20260906065237 | 20 | 84 | 3.2 | 6.4 | 0.00 | 0.53 | 0.00 | 87 | 1018.3 |
| 20260906064737 | 20 | 95 | 3.2 | 4.8 | 0.00 | 0.53 | 0.00 | 87 | 1018.3 |
| 20260906064237 | 20 | 53 | 1.6 | 6.4 | 0.00 | 0.53 | 0.00 | 87 | 1018.4 |
| 20260906063737 | 20 | 74 | 1.6 | 6.4 | 0.00 | 0.53 | 0.00 | 87 | 1018.4 |
| 20260906063237 | 20 | 74 | 3.2 | 4.8 | 0.00 | 0.53 | 0.00 | 86 | 1018.5 |
| 20260906062737 | 20 | 108 | 1.6 | 4.8 | 0.00 | 0.53 | 0.00 | 86 | 1018.4 |
| 20260906062237 | 20 | 50 | 1.6 | 6.4 | 0.00 | 0.53 | 0.00 | 86 | 1018.3 |
| 20260906061737 | 20 | 45 | 0.0 | 3.2 | 0.00 | 0.53 | 0.00 | 85 | 1018.4 |
| 20260906061237 | 20 | 99 | 1.6 | 3.2 | 0.00 | 0.53 | 0.00 | 84 | 1018.4 |
| 20260906060737 | 20 | 61 | 0.0 | 4.8 | 0.00 | 0.53 | 0.00 | 84 | 1018.4 |
| 20260906060237 | 20 | 45 | 0.0 | 4.8 | 0.00 | 0.53 | 0.00 | 84 | 1018.3 |
| 20260906055737 | 20 | 80 | 4.8 | 4.8 | 0.00 | 0.53 | 0.00 | 85 | 1018.2 |
| 20260906055237 | 21 | 95 | 3.2 | 4.8 | 0.00 | 0.56 | 0.00 | 85 | 1018.1 |
| 20260906054737 | 21 | 111 | 1.6 | 4.8 | 0.00 | 0.56 | 0.00 | 85 | 1018.1 |
| 20260906054237 | 21 | 39 | 0.0 | 3.2 | 0.00 | 0.56 | 0.00 | 85 | 1018.1 |
| 20260906053737 | 21 | 92 | 3.2 | 4.8 | 0.00 | 0.56 | 0.00 | 85 | 1018.1 |
| 20260906053237 | 21 | 125 | 1.6 | 4.8 | 0.00 | 0.56 | 0.00 | 86 | 1018.1 |
| 20260906052737 | 21 | 49 | 0.0 | 3.2 | 0.00 | 0.56 | 0.00 | 86 | 1018.1 |
| 20260906052237 | 21 | 84 | 1.6 | 3.2 | 0.00 | 0.56 | 0.00 | 86 | 1018.1 |
| 20260906051737 | 21 | 78 | 1.6 | 3.2 | 0.00 | 0.56 | 0.00 | 86 | 1018.0 |
| 20260906051237 | 21 | 92 | 1.6 | 3.2 | 0.00 | 0.56 | 0.00 | 87 | 1018.0 |
| 20260906050737 | 21 | 94 | 3.2 | 4.8 | 0.00 | 0.56 | 0.00 | 87 | 1017.9 |
| 20260906050237 | 21 | 101 | 3.2 | 6.4 | 0.00 | 0.56 | 0.00 | 87 | 1017.9 |
| 20260906045737 | 21 | 71 | 3.2 | 4.8 | 0.00 | 0.56 | 0.00 | 87 | 1017.9 |
| 20260906045237 | 21 | 97 | 3.2 | 4.8 | 0.00 | 0.56 | 0.00 | 87 | 1017.9 |
| 20260906044737 | 21 | 95 | 3.2 | 8.0 | 0.00 | 0.56 | 0.00 | 86 | 1017.9 |
| 20260906044237 | 21 | 101 | 4.8 | 4.8 | 0.00 | 0.56 | 0.00 | 87 | 1017.9 |
| 20260906043737 | 21 | 91 | 3.2 | 3.2 | 0.00 | 0.56 | 0.00 | 87 | 1017.9 |
| 20260906043237 | 21 | 54 | 0.0 | 3.2 | 0.00 | 0.56 | 0.00 | 88 | 1017.8 |
| 20260906042737 | 21 | 54 | 0.0 | 1.6 | 0.00 | 0.56 | 0.00 | 88 | 1017.8 |
| 20260906042237 | 21 | 37 | 0.0 | 3.2 | 0.00 | 0.56 | 0.00 | 88 | 1017.8 |
| 20260906041737 | 21 | 23 | 0.0 | 0.0 | 0.00 | 0.56 | 0.00 | 89 | 1017.7 |
| 20260906041237 | 21 | 23 | 0.0 | 0.0 | 0.00 | 0.56 | 0.00 | 89 | 1017.6 |
| 20260906040737 | 20 | 23 | 0.0 | 0.0 | 0.00 | 0.56 | 0.00 | 89 | 1017.6 |
| 20260906040237 | 20 | 23 | 0.0 | 3.2 | 0.00 | 0.56 | 0.00 | 89 | 1017.7 |
| 20260906035737 | 20 | 115 | 0.0 | 0.0 | 0.00 | 0.56 | 0.00 | 90 | 1017.7 |
| 20260906035237 | 21 | 115 | 0.0 | 0.0 | 0.00 | 0.56 | 0.56 | 90 | 1017.7 |
| 20260906034737 | 21 | 115 | 0.0 | 0.0 | 0.03 | 0.56 | 0.56 | 90 | 1017.5 |
| 20260906034237 | 21 | 115 | 0.0 | 0.0 | 0.03 | 0.56 | 0.56 | 90 | 1017.5 |
| 20260906033737 | 21 | 115 | 0.0 | 0.0 | 0.03 | 0.56 | 0.56 | 90 | 1017.4 |
| 20260906033237 | 21 | 115 | 0.0 | 0.0 | 0.03 | 0.56 | 0.56 | 90 | 1017.5 |
| 20260906032737 | 21 | 115 | 0.0 | 3.2 | 0.03 | 0.56 | 0.56 | 90 | 1017.5 |
| 20260906032237 | 21 | 88 | 1.6 | 4.8 | 0.03 | 0.56 | 0.56 | 90 | 1017.5 |
| 20260906031737 | 21 | 91 | 3.2 | 4.8 | 0.03 | 0.56 | 0.56 | 90 | 1017.5 |
| 20260906031237 | 21 | 94 | 3.2 | 6.4 | 0.03 | 0.56 | 0.56 | 90 | 1017.4 |
| 20260906030737 | 21 | 111 | 0.0 | 4.8 | 0.03 | 0.56 | 0.56 | 90 | 1017.4 |
| 20260906030237 | 21 | 77 | 3.2 | 6.4 | 0.03 | 0.56 | 0.56 | 90 | 1017.3 |
| 20260906025737 | 21 | 80 | 4.8 | 6.4 | 0.03 | 0.56 | 0.56 | 89 | 1017.3 |
| 20260906025237 | 21 | 95 | 3.2 | 6.4 | 0.03 | 0.56 | 0.56 | 90 | 1017.2 |
| 20260906024737 | 22 | 91 | 4.8 | 6.4 | 0.00 | 0.53 | 0.53 | 90 | 1017.1 |
| 20260906024237 | 22 | 112 | 4.8 | 6.4 | 0.00 | 0.53 | 0.53 | 90 | 1017.1 |
| 20260906023737 | 22 | 90 | 3.2 | 6.4 | 0.00 | 0.53 | 0.53 | 90 | 1017.1 |
| 20260906023237 | 22 | 88 | 1.6 | 4.8 | 0.00 | 0.53 | 0.53 | 90 | 1017.1 |
| 20260906022737 | 22 | 90 | 4.8 | 6.4 | 0.00 | 0.53 | 0.53 | 90 | 1017.0 |
| 20260906022237 | 22 | 105 | 4.8 | 8.0 | 0.00 | 0.53 | 0.53 | 90 | 1016.9 |
| 20260906021737 | 22 | 49 | 3.2 | 6.4 | 0.00 | 0.53 | 0.53 | 90 | 1016.9 |
| 20260906021237 | 22 | 99 | 4.8 | 6.4 | 0.00 | 0.53 | 0.53 | 89 | 1016.8 |
| 20260906020737 | 22 | 98 | 4.8 | 6.4 | 0.00 | 0.53 | 0.53 | 89 | 1016.9 |
| 20260906020237 | 22 | 95 | 0.0 | 6.4 | 0.00 | 0.53 | 0.53 | 89 | 1016.8 |
| 20260906015737 | 22 | 111 | 4.8 | 8.0 | 0.00 | 0.53 | 0.53 | 89 | 1016.8 |
| 20260906015237 | 22 | 123 | 6.4 | 9.7 | 0.00 | 0.53 | 0.53 | 89 | 1016.7 |
| 20260906014737 | 22 | 78 | 6.4 | 9.7 | 0.00 | 0.53 | 0.53 | 89 | 1016.8 |
| 20260906014237 | 22 | 80 | 4.8 | 9.7 | 0.00 | 0.53 | 0.53 | 89 | 1016.7 |
| 20260906013737 | 22 | 106 | 6.4 | 6.4 | 0.00 | 0.53 | 0.53 | 89 | 1016.6 |
| 20260906013237 | 23 | 119 | 4.8 | 8.0 | 0.00 | 0.53 | 0.53 | 89 | 1016.4 |
| 20260906012737 | 23 | 104 | 3.2 | 11.3 | 0.00 | 0.53 | 0.53 | 89 | 1016.4 |
| 20260906012237 | 23 | 68 | 3.2 | 6.4 | 0.00 | 0.53 | 0.53 | 89 | 1016.2 |
| 20260906011737 | 23 | 57 | 3.2 | 8.0 | 0.00 | 0.53 | 0.53 | 90 | 1016.1 |
| 20260906011237 | 23 | 92 | 6.4 | 11.3 | 0.00 | 0.53 | 0.53 | 89 | 1016.0 |
| 20260906010737 | 23 | 109 | 3.2 | 11.3 | 0.00 | 0.53 | 0.53 | 89 | 1015.9 |
| 20260906010237 | 23 | 78 | 3.2 | 8.0 | 0.00 | 0.53 | 0.53 | 89 | 1015.7 |
| 20260906005737 | 23 | 88 | 4.8 | 6.4 | 0.00 | 0.53 | 0.53 | 89 | 1015.6 |
| 20260906005237 | 23 | 77 | 4.8 | 6.4 | 0.03 | 0.53 | 0.53 | 89 | 1015.5 |
| 20260906004737 | 23 | 97 | 4.8 | 8.0 | 0.05 | 0.53 | 0.53 | 89 | 1015.5 |
| 20260906004237 | 23 | 90 | 3.2 | 8.0 | 0.15 | 0.53 | 0.53 | 88 | 1015.6 |
| 20260906003737 | 24 | 85 | 4.8 | 8.0 | 0.18 | 0.53 | 0.53 | 88 | 1015.6 |
| 20260906003237 | 24 | 88 | 8.0 | 11.3 | 0.18 | 0.53 | 0.53 | 88 | 1015.6 |
| 20260906002737 | 24 | 92 | 3.2 | 6.4 | 0.18 | 0.53 | 0.53 | 89 | 1015.6 |
| 20260906002237 | 24 | 88 | 4.8 | 6.4 | 0.18 | 0.53 | 0.53 | 89 | 1015.5 |
| 20260906001737 | 24 | 95 | 4.8 | 9.7 | 0.18 | 0.53 | 0.53 | 88 | 1015.1 |
| 20260906001237 | 25 | 189 | 0.0 | 4.8 | 0.18 | 0.53 | 0.53 | 88 | 1015.2 |
| 20260906000737 | 25 | 104 | 1.6 | 6.4 | 0.18 | 0.53 | 0.53 | 87 | 1015.2 |
| 20260906000237 | 25 | 70 | 4.8 | 9.7 | 0.18 | 0.53 | 0.53 | 87 | 1015.2 |
| 20260906000039 | 25 | 94 | 3.2 | 8.0 | 0.18 | 0.53 | 0.53 | 86 | 1015.2 |
| 20260905235737 | 25 | 94 | 3.2 | 8.0 | 0.18 | 0.53 | 0.53 | 86 | 1015.2 |
| 20260905235237 | 25 | 90 | 4.8 | 8.0 | 0.15 | 0.51 | 0.51 | 86 | 1015.1 |
| 20260905234737 | 26 | 84 | 6.4 | 9.7 | 0.13 | 0.48 | 0.48 | 84 | 1015.0 |
| 20260905234237 | 26 | 46 | 6.4 | 8.0 | 0.03 | 0.38 | 0.38 | 82 | 1015.2 |
| 20260905233737 | 26 | 92 | 4.8 | 8.0 | 0.00 | 0.36 | 0.36 | 81 | 1015.0 |
| 20260905233237 | 26 | 102 | 6.4 | 8.0 | 0.00 | 0.36 | 0.36 | 80 | 1014.7 |
| 20260905232737 | 26 | 130 | 1.6 | 9.7 | 0.00 | 0.36 | 0.36 | 80 | 1014.7 |
| 20260905232237 | 26 | 95 | 6.4 | 8.0 | 0.00 | 0.36 | 0.36 | 79 | 1014.7 |
| 20260905231737 | 26 | 98 | 6.4 | 9.7 | 0.00 | 0.36 | 0.36 | 79 | 1014.8 |
| 20260905231237 | 26 | 92 | 6.4 | 6.4 | 0.00 | 0.36 | 0.36 | 80 | 1014.8 |
| 20260905230738 | 26 | 108 | 1.6 | 6.4 | 0.00 | 0.36 | 0.36 | 79 | 1014.8 |
| 20260905230237 | 27 | 104 | 3.2 | 4.8 | 0.00 | 0.36 | 0.36 | 79 | 1014.7 |
| 20260905225738 | 27 | 68 | 1.6 | 4.8 | 0.00 | 0.36 | 0.36 | 77 | 1014.7 |
| 20260905225238 | 27 | 175 | 1.6 | 4.8 | 0.00 | 0.36 | 0.36 | 76 | 1014.7 |
| 20260905224738 | 27 | 61 | 3.2 | 6.4 | 0.00 | 0.36 | 0.36 | 75 | 1014.7 |
| 20260905224238 | 28 | 60 | 4.8 | 8.0 | 0.00 | 0.36 | 0.36 | 74 | 1014.7 |
| 20260905223738 | 28 | 88 | 4.8 | 6.4 | 0.00 | 0.36 | 0.36 | 74 | 1014.7 |
| 20260905223238 | 28 | 22 | 0.0 | 4.8 | 0.00 | 0.36 | 0.36 | 74 | 1014.6 |
| 20260905222738 | 28 | 42 | 0.0 | 1.6 | 0.00 | 0.36 | 0.36 | 74 | 1014.5 |
| 20260905222238 | 28 | 82 | 0.0 | 4.8 | 0.00 | 0.36 | 0.36 | 73 | 1014.4 |
| 20260905221738 | 28 | 59 | 1.6 | 6.4 | 0.00 | 0.36 | 0.36 | 74 | 1014.5 |
| 20260905221238 | 28 | 66 | 4.8 | 4.8 | 0.00 | 0.36 | 0.36 | 74 | 1014.5 |
| 20260905220738 | 28 | 46 | 0.0 | 8.0 | 0.00 | 0.36 | 0.36 | 74 | 1014.5 |
| 20260905220238 | 28 | 59 | 3.2 | 4.8 | 0.00 | 0.36 | 0.36 | 75 | 1014.4 |
| 20260905215738 | 28 | 64 | 1.6 | 4.8 | 0.00 | 0.36 | 0.36 | 71 | 1014.3 |
| 20260905215238 | 28 | 4 | 0.0 | 4.8 | 0.00 | 0.36 | 0.36 | 72 | 1014.1 |
| 20260905214738 | 28 | 47 | 3.2 | 4.8 | 0.00 | 0.36 | 0.36 | 71 | 1014.0 |
| 20260905214238 | 28 | 42 | 0.0 | 6.4 | 0.00 | 0.36 | 0.36 | 71 | 1013.9 |
| 20260905213738 | 28 | 180 | 3.2 | 6.4 | 0.00 | 0.36 | 0.36 | 70 | 1013.9 |
| 20260905213238 | 29 | 147 | 1.6 | 6.4 | 0.00 | 0.36 | 0.36 | 70 | 1014.1 |
| 20260905212738 | 29 | 57 | 0.0 | 8.0 | 0.00 | 0.36 | 0.36 | 70 | 1014.2 |
| 20260905212238 | 30 | 358 | 1.6 | 4.8 | 0.00 | 0.36 | 0.36 | 68 | 1014.2 |
| 20260905211738 | 30 | 28 | 1.6 | 4.8 | 0.00 | 0.36 | 0.36 | 68 | 1014.1 |
| 20260905211238 | 30 | 78 | 0.0 | 4.8 | 0.00 | 0.36 | 0.36 | 66 | 1014.1 |
| 20260905210738 | 30 | 22 | 3.2 | 8.0 | 0.00 | 0.36 | 0.36 | 66 | 1014.0 |
| 20260905210238 | 30 | 310 | 1.6 | 4.8 | 0.00 | 0.36 | 0.36 | 66 | 1014.2 |
| 20260905205738 | 30 | 16 | 1.6 | 3.2 | 0.00 | 0.36 | 0.36 | 65 | 1014.2 |
| 20260905205238 | 30 | 12 | 0.0 | 3.2 | 0.00 | 0.36 | 0.36 | 65 | 1014.3 |
| 20260905204738 | 30 | 326 | 1.6 | 4.8 | 0.00 | 0.36 | 0.36 | 64 | 1014.3 |
| 20260905204238 | 30 | 300 | 3.2 | 4.8 | 0.00 | 0.36 | 0.36 | 65 | 1014.3 |
| 20260905203738 | 30 | 36 | 0.0 | 8.0 | 0.00 | 0.36 | 0.36 | 66 | 1014.3 |
| 20260905203238 | 30 | 40 | 1.6 | 4.8 | 0.00 | 0.36 | 0.36 | 65 | 1014.4 |
| 20260905202738 | 30 | 75 | 0.0 | 3.2 | 0.00 | 0.36 | 0.36 | 66 | 1014.5 |
| 20260905202238 | 30 | 42 | 0.0 | 4.8 | 0.00 | 0.36 | 0.36 | 65 | 1014.5 |
| 20260905201738 | 30 | 320 | 1.6 | 3.2 | 0.00 | 0.36 | 0.36 | 64 | 1014.5 |
| 20260905201238 | 30 | 315 | 0.0 | 8.0 | 0.00 | 0.36 | 0.36 | 64 | 1014.6 |
| 20260905200738 | 30 | 345 | 1.6 | 3.2 | 0.00 | 0.36 | 0.36 | 65 | 1014.6 |
| 20260905200238 | 30 | 30 | 1.6 | 6.4 | 0.00 | 0.36 | 0.36 | 66 | 1014.7 |
| 20260905195738 | 30 | 350 | 0.0 | 3.2 | 0.00 | 0.36 | 0.36 | 66 | 1014.8 |
| 20260905195238 | 30 | 1 | 0.0 | 1.6 | 0.00 | 0.36 | 0.36 | 66 | 1014.8 |
| 20260905194738 | 30 | 23 | 0.0 | 4.8 | 0.00 | 0.36 | 0.36 | 66 | 1015.0 |
| 20260905194238 | 30 | 313 | 0.0 | 3.2 | 0.00 | 0.36 | 0.36 | 64 | 1014.9 |
| 20260905193738 | 30 | 37 | 0.0 | 3.2 | 0.00 | 0.36 | 0.36 | 65 | 1014.9 |
| 20260905193238 | 31 | 7 | 0.0 | 3.2 | 0.00 | 0.36 | 0.36 | 62 | 1014.9 |
| 20260905192738 | 31 | 28 | 0.0 | 9.7 | 0.00 | 0.36 | 0.36 | 60 | 1014.9 |
| 20260905192238 | 31 | 16 | 0.0 | 9.7 | 0.00 | 0.36 | 0.36 | 62 | 1014.9 |
| 20260905191738 | 31 | 23 | 4.8 | 4.8 | 0.00 | 0.36 | 0.36 | 61 | 1014.9 |
| 20260905191238 | 31 | 344 | 0.0 | 4.8 | 0.00 | 0.36 | 0.36 | 61 | 1015.0 |
| 20260905190738 | 30 | 358 | 0.0 | 6.4 | 0.00 | 0.36 | 0.36 | 62 | 1015.2 |
| 20260905190238 | 30 | 217 | 6.4 | 8.0 | 0.00 | 0.36 | 0.36 | 62 | 1015.2 |
| 20260905185738 | 30 | 255 | 0.0 | 11.3 | 0.00 | 0.36 | 0.36 | 61 | 1015.2 |
| 20260905185238 | 30 | 315 | 1.6 | 12.9 | 0.00 | 0.36 | 0.36 | 62 | 1015.3 |
| 20260905184738 | 30 | 227 | 1.6 | 6.4 | 0.00 | 0.36 | 0.36 | 63 | 1015.3 |
| 20260905184238 | 30 | 102 | 1.6 | 4.8 | 0.00 | 0.36 | 0.36 | 64 | 1015.4 |
| 20260905183738 | 30 | 312 | 1.6 | 9.7 | 0.00 | 0.36 | 0.36 | 63 | 1015.4 |
| 20260905183238 | 30 | 220 | 6.4 | 9.7 | 0.00 | 0.36 | 0.36 | 63 | 1015.4 |
| 20260905182738 | 30 | 253 | 3.2 | 6.4 | 0.03 | 0.36 | 0.36 | 65 | 1015.4 |
| 20260905182238 | 30 | 317 | 4.8 | 11.3 | 0.03 | 0.36 | 0.36 | 66 | 1015.5 |
| 20260905181738 | 29 | 241 | 0.0 | 6.4 | 0.03 | 0.36 | 0.36 | 69 | 1015.6 |
| 20260905181238 | 28 | 132 | 0.0 | 9.7 | 0.03 | 0.36 | 0.36 | 67 | 1015.6 |
| 20260905180738 | 28 | 286 | 4.8 | 12.9 | 0.03 | 0.36 | 0.36 | 68 | 1015.7 |
| 20260905180238 | 28 | 310 | 6.4 | 11.3 | 0.03 | 0.36 | 0.36 | 68 | 1015.8 |
| 20260905175738 | 27 | 160 | 0.0 | 3.2 | 0.03 | 0.36 | 0.36 | 75 | 1015.8 |
| 20260905175238 | 27 | 319 | 1.6 | 6.4 | 0.03 | 0.36 | 0.36 | 76 | 1015.9 |
| 20260905174738 | 27 | 282 | 3.2 | 3.2 | 0.03 | 0.36 | 0.36 | 78 | 1016.0 |
| 20260905174238 | 27 | 8 | 0.0 | 0.0 | 0.03 | 0.36 | 0.36 | 79 | 1016.1 |
| 20260905173738 | 27 | 8 | 0.0 | 1.6 | 0.03 | 0.36 | 0.36 | 77 | 1016.2 |
| 20260905173238 | 27 | 26 | 0.0 | 6.4 | 0.03 | 0.36 | 0.36 | 75 | 1016.5 |
| 20260905172738 | 27 | 302 | 4.8 | 11.3 | 0.00 | 0.33 | 0.33 | 72 | 1016.2 |
| 20260905172238 | 27 | 277 | 1.6 | 9.7 | 0.00 | 0.33 | 0.33 | 71 | 1016.4 |
| 20260905171738 | 27 | 292 | 6.4 | 14.5 | 0.00 | 0.33 | 0.33 | 70 | 1016.4 |
| 20260905171238 | 27 | 317 | 4.8 | 9.7 | 0.00 | 0.33 | 0.33 | 72 | 1016.4 |
| 20260905170738 | 27 | 189 | 4.8 | 11.3 | 0.00 | 0.33 | 0.33 | 71 | 1016.4 |
| 20260905170238 | 27 | 40 | 0.0 | 6.4 | 0.00 | 0.33 | 0.33 | 74 | 1016.5 |
| 20260905165738 | 26 | 35 | 1.6 | 6.4 | 0.00 | 0.33 | 0.33 | 75 | 1016.5 |
| 20260905165238 | 26 | 212 | 0.0 | 6.4 | 0.00 | 0.33 | 0.33 | 77 | 1016.7 |
| 20260905164738 | 26 | 282 | 0.0 | 8.0 | 0.00 | 0.33 | 0.33 | 75 | 1016.7 |
| 20260905164238 | 26 | 109 | 1.6 | 11.3 | 0.00 | 0.33 | 0.33 | 72 | 1016.8 |
| 20260905163738 | 26 | 279 | 4.8 | 11.3 | 0.00 | 0.33 | 0.33 | 74 | 1016.8 |
| 20260905163238 | 26 | 330 | 1.6 | 12.9 | 0.00 | 0.33 | 0.33 | 81 | 1016.8 |
| 20260905162738 | 26 | 316 | 3.2 | 8.0 | 0.00 | 0.33 | 0.33 | 80 | 1016.9 |
| 20260905162238 | 25 | 198 | 1.6 | 6.4 | 0.00 | 0.33 | 0.33 | 81 | 1016.9 |
| 20260905161738 | 25 | 226 | 0.0 | 11.3 | 0.00 | 0.33 | 0.33 | 84 | 1017.0 |
| 20260905161238 | 25 | 172 | 6.4 | 6.4 | 0.00 | 0.33 | 0.33 | 83 | 1017.0 |
| 20260905160738 | 25 | 81 | 0.0 | 4.8 | 0.00 | 0.33 | 0.33 | 84 | 1017.1 |
| 20260905160238 | 24 | 129 | 3.2 | 6.4 | 0.00 | 0.33 | 0.33 | 87 | 1017.2 |
| 20260905155738 | 23 | 151 | 0.0 | 0.0 | 0.00 | 0.33 | 0.33 | 91 | 1017.2 |
| 20260905155238 | 23 | 151 | 0.0 | 0.0 | 0.00 | 0.33 | 0.33 | 91 | 1017.1 |
| 20260905154738 | 23 | 151 | 0.0 | 0.0 | 0.00 | 0.33 | 0.33 | 90 | 1017.2 |
| 20260905154238 | 23 | 151 | 0.0 | 0.0 | 0.15 | 0.33 | 0.33 | 90 | 1017.1 |
| 20260905153738 | 23 | 151 | 0.0 | 0.0 | 0.18 | 0.33 | 0.33 | 91 | 1017.2 |
| 20260905153238 | 22 | 151 | 0.0 | 4.8 | 0.18 | 0.33 | 0.33 | 92 | 1017.2 |
| 20260905152738 | 22 | 216 | 3.2 | 6.4 | 0.18 | 0.33 | 0.33 | 92 | 1017.3 |
| 20260905152238 | 22 | 188 | 0.0 | 0.0 | 0.18 | 0.33 | 0.33 | 93 | 1017.4 |
| 20260905151738 | 22 | 188 | 0.0 | 0.0 | 0.18 | 0.33 | 0.33 | 93 | 1017.5 |
| 20260905151238 | 22 | 188 | 0.0 | 0.0 | 0.18 | 0.33 | 0.33 | 93 | 1017.4 |
| 20260905150738 | 21 | 158 | 0.0 | 0.0 | 0.18 | 0.33 | 0.33 | 92 | 1017.3 |
| 20260905150238 | 21 | 158 | 0.0 | 1.6 | 0.18 | 0.33 | 0.33 | 92 | 1017.3 |
| 20260905145738 | 21 | 163 | 0.0 | 0.0 | 0.18 | 0.33 | 0.33 | 92 | 1017.2 |
| 20260905145238 | 22 | 163 | 0.0 | 3.2 | 0.18 | 0.33 | 0.33 | 91 | 1017.1 |
| 20260905144738 | 22 | 174 | 3.2 | 4.8 | 0.18 | 0.33 | 0.33 | 90 | 1017.0 |
| 20260905144238 | 22 | 16 | 0.0 | 0.0 | 0.03 | 0.18 | 0.18 | 89 | 1017.3 |
| 20260905143738 | 22 | 16 | 0.0 | 1.6 | 0.00 | 0.15 | 0.15 | 89 | 1017.0 |
| 20260905143238 | 22 | 45 | 0.0 | 0.0 | 0.00 | 0.15 | 0.15 | 89 | 1016.9 |
| 20260905142738 | 22 | 188 | 0.0 | 3.2 | 0.00 | 0.15 | 0.15 | 89 | 1016.7 |
| 20260905142238 | 22 | 212 | 0.0 | 4.8 | 0.00 | 0.15 | 0.15 | 88 | 1016.9 |
| 20260905141739 | 22 | 45 | 0.0 | 3.2 | 0.00 | 0.15 | 0.15 | 88 | 1017.1 |
| 20260905141239 | 22 | 28 | 0.0 | 6.4 | 0.00 | 0.15 | 0.15 | 87 | 1017.0 |
| 20260905140739 | 22 | 32 | 0.0 | 3.2 | 0.00 | 0.15 | 0.15 | 88 | 1016.5 |
| 20260905140239 | 22 | 45 | 0.0 | 4.8 | 0.00 | 0.15 | 0.15 | 90 | 1016.4 |
| 20260905135739 | 21 | 272 | 0.0 | 1.6 | 0.00 | 0.15 | 0.15 | 91 | 1016.2 |
| 20260905135239 | 21 | 146 | 1.6 | 4.8 | 0.00 | 0.15 | 0.15 | 91 | 1016.4 |
| 20260905134739 | 21 | 67 | 0.0 | 3.2 | 0.00 | 0.15 | 0.15 | 91 | 1016.4 |
| 20260905134239 | 21 | 129 | 0.0 | 6.4 | 0.00 | 0.15 | 0.15 | 91 | 1016.4 |
| 20260905133739 | 21 | 192 | 1.6 | 6.4 | 0.00 | 0.15 | 0.15 | 92 | 1016.2 |
| 20260905133239 | 21 | 108 | 1.6 | 6.4 | 0.00 | 0.15 | 0.15 | 92 | 1016.2 |
| 20260905132739 | 21 | 99 | 1.6 | 3.2 | 0.00 | 0.15 | 0.15 | 93 | 1016.2 |
| 20260905132239 | 21 | 168 | 0.0 | 8.0 | 0.00 | 0.15 | 0.15 | 93 | 1016.4 |
| 20260905131739 | 21 | 203 | 0.0 | 8.0 | 0.00 | 0.15 | 0.15 | 94 | 1016.4 |
| 20260905131239 | 21 | 206 | 3.2 | 9.7 | 0.00 | 0.15 | 0.15 | 94 | 1016.4 |
| 20260905130739 | 21 | 12 | 0.0 | 8.0 | 0.00 | 0.15 | 0.15 | 94 | 1016.2 |
| 20260905130239 | 20 | 154 | 0.0 | 8.0 | 0.00 | 0.15 | 0.15 | 95 | 1016.0 |
| 20260905125739 | 20 | 178 | 0.0 | 12.9 | 0.00 | 0.15 | 0.15 | 95 | 1016.1 |
| 20260905125239 | 20 | 184 | 0.0 | 1.6 | 0.00 | 0.15 | 0.15 | 95 | 1016.4 |
| 20260905124739 | 20 | 195 | 1.6 | 8.0 | 0.00 | 0.15 | 0.15 | 95 | 1016.5 |
| 20260905124239 | 20 | 194 | 0.0 | 4.8 | 0.00 | 0.15 | 0.15 | 95 | 1016.6 |
| 20260905123739 | 20 | 187 | 3.2 | 6.4 | 0.00 | 0.15 | 0.15 | 95 | 1016.8 |
| 20260905123239 | 20 | 198 | 1.6 | 6.4 | 0.00 | 0.15 | 0.15 | 95 | 1016.8 |
| 20260905122739 | 20 | 203 | 0.0 | 9.7 | 0.00 | 0.15 | 0.15 | 95 | 1016.8 |
| 20260905122239 | 20 | 167 | 3.2 | 6.4 | 0.00 | 0.15 | 0.15 | 95 | 1016.8 |
| 20260905121739 | 20 | 116 | 0.0 | 6.4 | 0.00 | 0.15 | 0.15 | 95 | 1016.9 |
| 20260905121239 | 20 | 116 | 0.0 | 1.6 | 0.00 | 0.15 | 0.15 | 95 | 1016.8 |
| 20260905120739 | 20 | 109 | 0.0 | 3.2 | 0.00 | 0.15 | 0.15 | 95 | 1016.7 |
| 20260905120239 | 20 | 50 | 0.0 | 0.0 | 0.00 | 0.15 | 0.15 | 94 | 1016.6 |
| 20260905115739 | 20 | 50 | 0.0 | 4.8 | 0.00 | 0.15 | 0.15 | 94 | 1016.6 |
| 20260905115239 | 20 | 187 | 0.0 | 0.0 | 0.00 | 0.15 | 0.15 | 94 | 1016.6 |
| 20260905114739 | 20 | 132 | 0.0 | 0.0 | 0.00 | 0.15 | 0.15 | 94 | 1016.7 |
| 20260905114239 | 20 | 171 | 0.0 | 3.2 | 0.00 | 0.15 | 0.15 | 94 | 1016.8 |
| 20260905113739 | 20 | 130 | 0.0 | 0.0 | 0.00 | 0.15 | 0.15 | 94 | 1016.7 |
| 20260905113239 | 20 | 130 | 0.0 | 0.0 | 0.00 | 0.15 | 0.15 | 94 | 1016.7 |
| 20260905112739 | 20 | 130 | 0.0 | 1.6 | 0.00 | 0.15 | 0.15 | 94 | 1016.8 |
| 20260905112239 | 20 | 108 | 0.0 | 3.2 | 0.00 | 0.15 | 0.15 | 94 | 1016.7 |
| 20260905111739 | 20 | 170 | 0.0 | 0.0 | 0.00 | 0.15 | 0.15 | 94 | 1016.7 |
| 20260905111239 | 20 | 170 | 0.0 | 6.4 | 0.03 | 0.15 | 0.15 | 93 | 1016.7 |
| 20260905110739 | 20 | 135 | 0.0 | 8.0 | 0.05 | 0.15 | 0.15 | 93 | 1016.5 |
| 20260905110239 | 20 | 191 | 1.6 | 3.2 | 0.13 | 0.15 | 0.15 | 93 | 1016.7 |
| 20260905105739 | 20 | 63 | 0.0 | 6.4 | 0.13 | 0.15 | 0.15 | 93 | 1016.7 |
| 20260905105239 | 20 | 66 | 4.8 | 6.4 | 0.13 | 0.15 | 0.15 | 93 | 1016.6 |
| 20260905104739 | 20 | 171 | 1.6 | 4.8 | 0.13 | 0.15 | 0.15 | 93 | 1016.7 |
| 20260905104239 | 20 | 146 | 0.0 | 6.4 | 0.13 | 0.15 | 0.15 | 93 | 1016.6 |
| 20260905103739 | 20 | 108 | 0.0 | 1.6 | 0.13 | 0.15 | 0.15 | 92 | 1016.6 |
| 20260905103239 | 20 | 184 | 0.0 | 8.0 | 0.13 | 0.15 | 0.15 | 92 | 1016.8 |
| 20260905102739 | 21 | 90 | 1.6 | 8.0 | 0.13 | 0.15 | 0.15 | 92 | 1016.7 |
| 20260905102239 | 21 | 164 | 1.6 | 6.4 | 0.13 | 0.15 | 0.15 | 91 | 1016.7 |
| 20260905101739 | 21 | 32 | 1.6 | 4.8 | 0.13 | 0.15 | 0.15 | 90 | 1016.9 |
| 20260905101239 | 21 | 106 | 0.0 | 6.4 | 0.10 | 0.13 | 0.13 | 89 | 1017.2 |
| 20260905100739 | 21 | 118 | 1.6 | 9.7 | 0.08 | 0.10 | 0.10 | 89 | 1016.7 |
| 20260905100239 | 21 | 108 | 1.6 | 8.0 | 0.00 | 0.03 | 0.03 | 89 | 1016.8 |
| 20260905095739 | 21 | 177 | 1.6 | 9.7 | 0.00 | 0.03 | 0.03 | 88 | 1016.9 |
| 20260905095239 | 21 | 161 | 1.6 | 4.8 | 0.00 | 0.03 | 0.03 | 88 | 1017.3 |
| 20260905094739 | 21 | 337 | 1.6 | 1.6 | 0.00 | 0.03 | 0.03 | 88 | 1017.5 |
| 20260905094239 | 21 | 113 | 0.0 | 8.0 | 0.00 | 0.03 | 0.03 | 87 | 1017.3 |
| 20260905093739 | 21 | 87 | 3.2 | 12.9 | 0.00 | 0.03 | 0.03 | 87 | 1017.1 |
| 20260905093239 | 21 | 85 | 4.8 | 6.4 | 0.00 | 0.03 | 0.03 | 87 | 1016.9 |
| 20260905092739 | 21 | 127 | 1.6 | 6.4 | 0.00 | 0.03 | 0.03 | 86 | 1016.9 |
| 20260905092239 | 21 | 87 | 4.8 | 9.7 | 0.00 | 0.03 | 0.03 | 85 | 1016.9 |
| 20260905091739 | 21 | 171 | 0.0 | 6.4 | 0.00 | 0.03 | 0.03 | 85 | 1017.2 |
| 20260905091239 | 21 | 142 | 3.2 | 8.0 | 0.00 | 0.03 | 0.03 | 84 | 1017.3 |
| 20260905090739 | 21 | 101 | 4.8 | 9.7 | 0.00 | 0.03 | 0.03 | 84 | 1017.2 |
| 20260905090239 | 22 | 180 | 4.8 | 11.3 | 0.00 | 0.03 | 0.03 | 84 | 1016.9 |
| 20260905085739 | 22 | 73 | 1.6 | 11.3 | 0.00 | 0.03 | 0.03 | 83 | 1016.9 |
| 20260905085239 | 22 | 106 | 8.0 | 11.3 | 0.00 | 0.03 | 0.03 | 85 | 1016.9 |
| 20260905084739 | 22 | 160 | 4.8 | 14.5 | 0.00 | 0.03 | 0.03 | 88 | 1016.7 |
| 20260905084239 | 23 | 125 | 6.4 | 16.1 | 0.00 | 0.03 | 0.03 | 91 | 1016.5 |
| 20260905083739 | 23 | 177 | 3.2 | 8.0 | 0.00 | 0.03 | 0.03 | 94 | 1016.5 |
| 20260905083239 | 23 | 208 | 0.0 | 0.0 | 0.00 | 0.03 | 0.03 | 94 | 1016.0 |
| 20260905082739 | 23 | 208 | 0.0 | 0.0 | 0.00 | 0.03 | 0.03 | 93 | 1015.8 |
| 20260905082239 | 23 | 208 | 0.0 | 0.0 | 0.00 | 0.03 | 0.03 | 94 | 1015.9 |
| 20260905081739 | 23 | 208 | 0.0 | 0.0 | 0.00 | 0.03 | 0.03 | 94 | 1015.8 |
| 20260905081239 | 23 | 208 | 0.0 | 0.0 | 0.00 | 0.03 | 0.03 | 94 | 1015.7 |
| 20260905080739 | 23 | 208 | 0.0 | 0.0 | 0.00 | 0.03 | 0.03 | 94 | 1015.6 |
| 20260905080239 | 23 | 208 | 0.0 | 0.0 | 0.00 | 0.03 | 0.03 | 94 | 1015.4 |